K5GTX Weather Reports


time (UTC)temp
C
wind
direction
speed
KPH
gust
KPH
rain 1hr
cm
rain 24hr
cm
rain mn
cm
humidity
%
barometer
mb
20260503013314 20 234 0.0 0.0 0.00 0.00 0.00 99 1025.2
20260503012811 21 234 0.0 0.0 0.00 0.00 0.00 99 1025.4
20260503012308 21 234 0.0 0.0 0.00 0.00 0.00 99 1025.1
20260503011805 21 234 0.0 3.2 0.00 0.00 0.00 99 1025.1
20260503011302 22 270 0.0 0.0 0.00 0.00 0.00 99 1025.1
20260503010758 22 270 0.0 1.6 0.00 0.00 0.00 99 1025.2
20260503010255 22 255 0.0 3.2 0.00 0.00 0.00 99 1024.8
20260503005752 22 270 0.0 3.2 0.00 0.00 0.00 99 1025.0
20260503005250 23 270 0.0 4.8 0.00 0.00 0.00 99 1025.0
20260503004745 23 279 0.0 3.2 0.00 0.00 0.00 99 1024.9
20260503004244 23 311 4.8 6.4 0.00 0.00 0.00 99 1024.7
20260503003740 23 286 0.0 1.6 0.00 0.00 0.00 99 1024.9
20260503003238 24 270 0.0 4.8 0.00 0.00 0.00 99 1024.8
20260503002734 24 297 1.6 4.8 0.00 0.00 0.00 99 1024.8
20260503002231 24 263 4.8 6.4 0.00 0.00 0.00 99 1024.8
20260503001727 24 254 1.6 8.0 0.00 0.00 0.00 99 1024.8
20260503001224 24 291 4.8 9.7 0.00 0.00 0.00 99 1024.9
20260503000722 25 332 3.2 6.4 0.00 0.00 0.00 99 1024.9
20260503000219 25 290 3.2 6.4 0.00 0.00 0.00 99 1025.0
20260502235716 25 217 3.2 8.0 0.00 0.00 0.00 99 1024.8
20260502235214 25 351 4.8 6.4 0.00 0.00 0.00 99 1024.8
20260502234710 26 261 1.6 1.6 0.00 0.00 0.00 99 1024.5
20260502234207 25 281 4.8 11.3 0.00 0.00 0.00 99 1024.7
20260502233703 25 297 3.2 11.3 0.00 0.00 0.00 99 1024.7
20260502233200 25 294 0.0 4.8 0.00 0.00 0.00 99 1024.8
20260502232655 25 265 3.2 4.8 0.00 0.00 0.00 99 1025.1
20260502232153 25 259 3.2 8.0 0.00 0.00 0.00 99 1024.9
20260502231649 25 258 4.8 9.7 0.00 0.00 0.00 99 1025.0
20260502231147 24 260 9.7 9.7 0.00 0.00 0.00 99 1025.0
20260502230646 23 312 3.2 9.7 0.00 0.00 0.00 99 1025.1
20260502230144 25 288 8.0 12.9 0.00 0.00 0.00 99 1025.5
20260502225639 25 290 3.2 6.4 0.00 0.00 0.00 99 1025.0
20260502225137 25 236 4.8 8.0 0.00 0.00 0.00 99 1025.0
20260502224632 25 297 1.6 4.8 0.00 0.00 0.00 99 1025.1
20260502224129 25 261 0.0 4.8 0.00 0.00 0.00 99 1025.2
20260502223627 25 354 4.8 4.8 0.00 0.00 0.00 99 1025.2
20260502223125 25 74 3.2 8.0 0.00 0.00 0.00 99 1025.2
20260502222622 24 345 1.6 4.8 0.00 0.00 0.00 99 1025.4
20260502222119 23 78 0.0 8.0 0.00 0.00 0.00 99 1025.2
20260502221614 23 326 4.8 12.9 0.00 0.00 0.00 99 1025.5
20260502221112 24 12 4.8 9.7 0.00 0.00 0.00 99 1025.4
20260502220608 24 21 4.8 8.0 0.00 0.00 0.00 99 1025.7
20260502220104 24 51 12.9 12.9 0.00 0.00 0.00 99 1025.5
20260502215602 24 64 8.0 16.1 0.00 0.00 0.00 99 1025.6
20260502215059 25 15 1.6 11.3 0.00 0.00 0.00 99 1025.9
20260502214555 26 254 0.0 4.8 0.00 0.00 0.00 99 1025.6
20260502214053 25 270 4.8 8.0 0.00 0.00 0.00 99 1025.7
20260502213550 24 62 6.4 16.1 0.00 0.00 0.00 99 1025.8
20260502213047 25 68 0.0 9.7 0.00 0.00 0.00 99 1026.0
20260502212546 24 315 3.2 9.7 0.00 0.00 0.00 99 1025.9
20260502212044 24 297 8.0 17.7 0.00 0.00 0.00 99 1026.0
20260502211539 24 344 8.0 9.7 0.00 0.00 0.00 99 1026.0
20260502211036 24 29 6.4 11.3 0.00 0.00 0.00 99 1026.0
20260502210533 24 293 6.4 12.9 0.00 0.00 0.00 99 1026.1
20260502210030 24 63 8.0 9.7 0.00 0.00 0.00 99 1026.3
20260502205527 24 291 1.6 6.4 0.00 0.00 0.00 99 1026.3
20260502205024 24 283 3.2 8.0 0.00 0.00 0.00 99 1026.4
20260502204521 24 0 0.0 8.0 0.00 0.00 0.00 99 1026.5
20260502204019 24 353 4.8 8.0 0.00 0.00 0.00 99 1026.4
20260502203515 24 349 3.2 8.0 0.00 0.00 0.00 99 1026.4
20260502203012 23 261 9.7 14.5 0.00 0.00 0.00 99 1026.5
20260502202508 23 301 4.8 11.3 0.00 0.00 0.00 99 1026.7
20260502202007 23 285 8.0 12.9 0.00 0.00 0.00 99 1026.7
20260502201502 23 340 1.6 11.3 0.00 0.00 0.00 99 1026.6
20260502200959 23 300 3.2 4.8 0.00 0.00 0.00 99 1026.7
20260502200455 23 79 3.2 12.9 0.00 0.00 0.00 99 1026.8
20260502195953 23 150 3.2 4.8 0.00 0.00 0.00 99 1027.1
20260502195450 23 293 3.2 8.0 0.00 0.00 0.00 99 1027.0
20260502194946 23 290 6.4 11.3 0.00 0.00 0.00 99 1027.3
20260502194443 23 56 6.4 11.3 0.00 0.00 0.00 99 1026.9
20260502193939 23 0 1.6 19.3 0.00 0.00 0.00 99 1027.2
20260502193437 23 259 8.0 9.7 0.00 0.00 0.00 99 1027.2
20260502192932 23 255 4.8 8.0 0.00 0.00 0.00 99 1027.2
20260502192429 22 120 0.0 9.7 0.00 0.00 0.00 99 1027.4
20260502191926 23 0 0.0 11.3 0.00 0.00 0.00 99 1027.4
20260502191424 23 319 8.0 11.3 0.00 0.00 0.00 99 1027.5
20260502190921 23 313 11.3 11.3 0.00 0.00 0.00 99 1027.5
20260502190418 23 98 1.6 6.4 0.00 0.00 0.00 99 1027.7
20260502185914 22 69 1.6 6.4 0.00 0.00 0.00 99 1027.5
20260502185409 22 292 8.0 8.0 0.00 0.00 0.00 99 1027.7
20260502184907 22 270 4.8 11.3 0.00 0.00 0.00 99 1027.8
20260502184402 22 35 4.8 9.7 0.00 0.00 0.00 99 1028.0
20260502183859 22 0 8.0 9.7 0.00 0.00 0.00 99 1027.7
20260502183355 22 26 12.9 12.9 0.00 0.00 0.00 99 1027.9
20260502182851 22 349 3.2 11.3 0.00 0.00 0.00 99 1027.8
20260502182347 23 337 8.0 16.1 0.00 0.00 0.00 99 1028.2
20260502181843 22 6 6.4 9.7 0.00 0.00 0.00 99 1028.2
20260502181342 22 226 6.4 11.3 0.00 0.00 0.00 99 1028.1
20260502180839 22 353 3.2 9.7 0.00 0.00 0.00 99 1028.2
20260502180336 21 259 6.4 8.0 0.00 0.00 0.00 99 1028.2
20260502170255 21 140 3.2 8.0 0.00 0.00 0.00 99 1028.9
20260502164243 21 95 0.0 6.4 0.00 0.00 0.00 99 1028.9
20260502163738 21 86 4.8 6.4 0.00 0.00 0.00 99 1029.0
20260502163235 21 356 3.2 6.4 0.00 0.00 0.00 99 1028.9
20260502162732 21 96 3.2 3.2 0.00 0.00 0.00 99 1029.1
20260502162229 20 55 3.2 6.4 0.00 0.00 0.00 99 1028.8
20260502161726 20 266 8.0 9.7 0.00 0.00 0.00 99 1029.0
20260502161222 20 289 1.6 6.4 0.00 0.00 0.00 99 1029.0
20260502160721 20 39 8.0 8.0 0.00 0.00 0.00 99 1029.0
20260502160219 20 30 11.3 11.3 0.00 0.00 0.00 99 1029.0
20260502152143 19 60 1.6 9.7 0.00 0.00 0.00 99 1028.8
20260502151641 20 83 1.6 4.8 0.00 0.00 0.00 99 1028.8
20260502151137 20 90 0.0 3.2 0.00 0.00 0.00 99 1028.6
20260502150635 18 305 3.2 6.4 0.00 0.00 0.00 99 1028.5
20260502150131 18 65 3.2 9.7 0.00 0.00 0.00 99 1028.5
20260502130520 12 18 0.0 3.2 0.00 0.00 0.00 99 1027.8
20260502123503 11 334 0.0 0.0 0.00 0.00 0.00 99 1027.3
20260502122959 10 334 0.0 0.0 0.00 0.00 0.00 99 1027.2
20260502122455 10 331 3.2 3.2 0.00 0.00 0.00 99 1027.0
20260502121954 10 337 0.0 1.6 0.00 0.00 0.00 99 1027.0
20260502121451 10 0 0.0 1.6 0.00 0.00 0.00 99 1027.0
20260502120948 10 20 0.0 1.6 0.00 0.00 0.00 99 1026.9
20260502120444 9 35 1.6 3.2 0.00 0.00 0.00 99 1026.8
20260502115439 9 74 0.0 0.0 0.00 0.00 0.00 99 1026.5
20260502114935 10 74 0.0 0.0 0.00 0.00 0.00 99 1026.4
20260502114432 10 74 0.0 0.0 0.00 0.00 0.00 99 1026.3
20260502113929 10 74 0.0 0.0 0.00 0.00 0.00 99 1026.1
20260502113426 10 74 0.0 0.0 0.00 0.00 0.00 99 1026.1
20260502112925 10 74 0.0 0.0 0.00 0.00 0.00 99 1026.0
20260502112422 10 74 0.0 0.0 0.00 0.00 0.00 99 1026.1
20260502111920 11 0 0.0 1.6 0.00 0.00 0.00 99 1026.0
20260502111416 11 26 0.0 3.2 0.00 0.00 0.00 99 1026.2
20260502110914 11 12 1.6 3.2 0.00 0.00 0.00 99 1026.2
20260502110412 11 300 0.0 3.2 0.00 0.00 0.00 99 1026.1
20260502105909 11 325 1.6 4.8 0.00 0.00 0.00 99 1025.9
20260502105406 11 330 0.0 4.8 0.00 0.00 0.00 99 1025.9
20260502104904 11 330 3.2 6.4 0.00 0.00 0.00 99 1026.0
20260502104401 11 250 3.2 4.8 0.00 0.00 0.00 99 1025.9
20260502103858 10 311 0.0 3.2 0.00 0.00 0.00 99 1025.7
20260502103355 10 8 0.0 0.0 0.00 0.00 0.00 99 1025.4
20260502102852 10 337 0.0 0.0 0.00 0.00 0.00 99 1025.5
20260502102349 10 337 0.0 0.0 0.00 0.00 0.00 99 1025.4
20260502101846 11 337 0.0 0.0 0.00 0.00 0.00 99 1025.6
20260502101345 11 0 0.0 1.6 0.00 0.00 0.00 99 1025.0
20260502100843 11 0 0.0 1.6 0.00 0.00 0.00 99 1025.5
20260502100342 11 0 0.0 3.2 0.00 0.00 0.00 99 1025.6
20260502091315 12 340 0.0 4.8 0.00 0.00 0.00 99 1025.7
20260502090813 12 292 3.2 4.8 0.00 0.00 0.00 99 1025.4
20260502090309 12 331 0.0 4.8 0.00 0.00 0.00 99 1025.5
20260502071204 12 28 0.0 3.2 0.00 0.00 0.00 99 1025.4
20260502070703 12 0 0.0 0.0 0.00 0.00 0.00 99 1025.5
20260502070200 12 279 0.0 0.0 0.00 0.00 0.00 99 1025.4
20260502065659 13 345 0.0 4.8 0.00 0.00 0.00 99 1025.5
20260502065155 13 294 1.6 6.4 0.00 0.00 0.00 99 1025.6
20260502064654 13 275 3.2 6.4 0.00 0.00 0.00 99 1025.7
20260502064151 13 282 0.0 4.8 0.00 0.00 0.00 99 1025.6
20260502063649 13 315 3.2 4.8 0.00 0.00 0.00 99 1025.7
20260502063147 12 270 0.0 4.8 0.00 0.00 0.00 99 1025.6
20260502062643 12 291 1.6 3.2 0.00 0.00 0.00 99 1025.5
20260502062141 12 289 0.0 3.2 0.00 0.00 0.00 99 1025.4
20260502061639 12 270 0.0 1.6 0.00 0.00 0.00 99 1025.6
20260502061137 12 340 0.0 0.0 0.00 0.00 0.00 99 1025.7
20260502060636 12 352 0.0 0.0 0.00 0.00 0.00 99 1025.4
20260502060133 12 0 0.0 0.0 0.00 0.00 0.00 99 1025.4
20260502055631 12 0 0.0 0.0 0.00 0.00 0.00 99 1025.5
20260502055129 12 352 0.0 0.0 0.00 0.00 0.00 99 1025.7
20260502054628 11 303 0.0 0.0 0.00 0.00 0.00 99 1025.8
20260502054125 11 303 0.0 0.0 0.00 0.00 0.00 99 1025.7
20260502053622 11 352 0.0 1.6 0.00 0.00 0.00 99 1025.6
20260502053119 12 186 0.0 0.0 0.00 0.00 0.00 99 1025.6
20260502052617 12 186 0.0 0.0 0.00 0.00 0.00 99 1025.6
20260502052115 12 186 0.0 0.0 0.00 0.00 0.00 99 1025.4
20260502051613 12 186 0.0 0.0 0.00 0.00 0.00 99 1025.8
20260502051111 12 186 0.0 1.6 0.00 0.00 0.00 99 1025.6
20260502050607 12 286 0.0 1.6 0.00 0.00 0.00 99 1025.7
20260502050104 12 303 0.0 3.2 0.00 0.00 0.00 99 1025.6
20260502045600 12 106 0.0 0.0 0.00 0.00 0.00 99 1025.6
20260502045057 13 261 0.0 0.0 0.00 0.00 0.00 99 1025.6
20260502044554 12 261 0.0 0.0 0.00 0.00 0.00 99 1025.7
20260502044051 12 261 0.0 0.0 0.00 0.00 0.00 99 1025.6
20260502043548 13 261 0.0 0.0 0.00 0.00 0.00 99 1025.4
20260502043044 13 261 0.0 0.0 0.00 0.00 0.00 99 1025.5
20260502042539 13 90 0.0 0.0 0.00 0.00 0.00 99 1025.4
20260502042037 13 90 0.0 0.0 0.00 0.00 0.00 99 1025.5
20260502041535 12 90 0.0 0.0 0.00 0.00 0.00 99 1025.5
20260502041032 13 90 0.0 0.0 0.00 0.00 0.00 99 1025.4
20260502040528 13 90 0.0 0.0 0.00 0.00 0.00 99 1025.2
20260502040025 13 90 0.0 0.0 0.00 0.00 0.00 99 1025.1
20260502035521 13 82 0.0 0.0 0.00 0.00 0.00 99 1025.7
20260502035019 13 82 0.0 0.0 0.00 0.00 0.00 99 1025.5
20260502034516 13 270 0.0 0.0 0.00 0.00 0.00 99 1025.4
20260502034015 13 270 0.0 0.0 0.00 0.00 0.00 99 1025.6
20260502033513 13 270 0.0 0.0 0.00 0.00 0.00 99 1025.5
20260502033010 14 270 0.0 0.0 0.00 0.00 0.00 99 1025.5
20260502032505 14 270 0.0 0.0 0.00 0.00 0.00 99 1025.6
20260502032003 14 270 0.0 0.0 0.00 0.00 0.00 99 1025.4
20260502031500 14 270 0.0 0.0 0.00 0.00 0.00 99 1025.5
20260502030958 15 270 0.0 0.0 0.00 0.00 0.00 99 1025.2
20260502030456 14 286 1.6 1.6 0.00 0.00 0.00 99 1025.1
20260502025954 15 90 0.0 0.0 0.00 0.00 0.00 99 1024.9
20260502025451 15 90 0.0 0.0 0.00 0.00 0.00 99 1024.9
20260502024949 15 90 0.0 0.0 0.00 0.00 0.00 99 1025.1
20260502024447 15 195 0.0 1.6 0.00 0.00 0.00 99 1025.2
20260502023945 15 99 0.0 0.0 0.00 0.00 0.00 99 1025.0
20260502023442 15 99 0.0 0.0 0.00 0.00 0.00 99 1025.1
20260502022939 15 99 0.0 0.0 0.00 0.00 0.00 99 1024.9
20260502022435 15 99 0.0 0.0 0.00 0.00 0.00 99 1024.9
20260502021932 15 99 0.0 0.0 0.00 0.00 0.00 99 1024.8
20260502021430 15 99 0.0 0.0 0.00 0.00 0.00 99 1024.7
20260502020927 15 99 0.0 0.0 0.00 0.00 0.00 99 1024.6
20260502020425 15 99 0.0 0.0 0.00 0.00 0.00 99 1024.4
20260502015921 15 99 0.0 0.0 0.00 0.00 0.00 99 1024.2
20260502015419 15 99 0.0 0.0 0.00 0.00 0.00 99 1024.2
20260502014915 15 99 0.0 0.0 0.00 0.00 0.00 99 1024.2
20260502014413 15 99 0.0 0.0 0.00 0.00 0.00 99 1024.2
20260502013909 15 99 0.0 0.0 0.00 0.00 0.00 99 1023.9